Regional Weather Roundup
Issued by NWS New Orleans/Baton Rouge, LA

Home | Current Version | Previous Version | Text Only | Print | Product List | Glossary Off
Versions: 1 2 3 4 5 6 7 8 9 10 11 12 13 14 15 16 17 18 19 20 21 22 23 24 25 26 27 28 29 30 31 32 33 34 35 36 37 38 39 40 41 42 43 44 45 46 47 48 49 50

131
ASUS44 KLIX 211305
RWRLIX
NEW ORLEANS REGIONAL WEATHER ROUNDUP
NATIONAL WEATHER SERVICE NEW ORLEANS LA
800 AM CDT TUE OCT 21 2014

NOTE: "FAIR" INDICATES FEW OR NO CLOUDS BELOW 12,000 FEET WITH NO
      SIGNIFICANT WEATHER AND/OR OBSTRUCTIONS TO VISIBILITY.
      SKY/WX - SKY CONDITION AND SIGNIFICANT WEATHER.
      TMP - AIR TEMPERATURE.     DP    - DEWPOINT TEMPERATURE.
      RH  - RELATIVE HUMIDITY.   PRES  - PRESSURE.
      HI  - HEAT INDEX.          WCI   - WIND CHILL INDEX.

*  THESE STATIONS ARE NOT NWS OR FAA STATIONS AND ARE NOT UNDER
   NWS QUALITY CONTROL.

LAZ038-040-048-061>063-065>067-069-211400-
SOUTHEAST LOUISIANA

CITY           SKY/WX    TMP DP  RH WIND       PRES   REMARKS
N.O. AUDUBON     N/A     66  55  68 MISG        N/A
N.O. INTL ARPT MOSUNNY   67  56  67 NE8       30.04R
N.O. LAKEFRONT SUNNY     68  56  65 NE13      30.05R
N.O. DOWNTOWN*   N/A     64  52  63 NE7       30.05R
SLIDELL          N/A     53  50  89 N3        30.05R
BATON ROUGE    CLEAR     57  52  83 NE5       30.07R
BOOTHVILLE     SUNNY     72  60  66 NE6       30.02R
BELLE CHASSE   MOSUNNY   60  54  80 NE5       30.03R
BOGALUSA*        N/A     52  48  89 CALM      30.08R
NEW ROADS*       N/A     55  53  93 CALM      30.07R
GONZALES*        N/A     56  56  97 CALM      30.05S
HAMMOND*       CLEAR     55  50  82 CALM      30.08R
HOUMA*         NOT AVBL
PORT FOURCHON* SUNNY     70  64  83 NE8       30.05R

$$

MSZ070-080>082-211400-
SOUTHERN MISSISSIPPI

CITY           SKY/WX    TMP DP  RH WIND       PRES   REMARKS
MCCOMB         CLEAR     58  48  69 NE5       30.08R
GULFPORT       SUNNY     58  51  78 N5        30.05R
BILOXI         SUNNY     57  51  82 N5        30.05R
PASCAGOULA     SUNNY     53  51  93 CALM      30.05R
STENNIS ARPT*  SUNNY     54  50  87 CALM      30.04S

$$

COASTAL OBSERVATIONS
LAKE AND NEARSHORE STATIONS

STATION/POSITION TIME  TEMP    WIND        PRES    WAVE
                       AIR SEA DIR/SP/G            HT/PER
                 (UTC) (F)     (DEG/KT/KT) (MB)    (FT/S)
PASCAGOULA       1300   58      20/  5/  7 1016.9
WAVELAND YACHT   1300   62      20/  7/  8 1016.8
GRAND ISLE       1300   71 76   60/  8/ 11 1016.9
SOUTHWEST PASS   1300   78 83              1016.5
NEW CANAL        1300   68 71   60/ 11/ 13 1017.6
SHELL BEACH      1300   69 68   30/ 13/ 14 1016.7

OFFSHORE STATIONS

STATION/POSITION TIME  TEMP    WIND        PRES    WAVE
                       AIR SEA DIR/SP/G            HT/PER
                 (UTC) (F)     (DEG/KT/KT) (MB)    (FT/S)
64 S DAUPHIN ISL 1151   75 79   30/ 10/ 12 1016.6    1/ 5

$$




USA.gov is the U.S. government's official web portal to all federal, state and local government web resources and services.